Regional Weather Roundup
Issued by NWS

Home | Current Version | Previous Version | Graphics & Text | Print | Product List | Glossary On
Versions: 1 2 3 4 5 6 7 8 9 10 11 12 13 14 15 16 17 18 19 20 21 22 23 24 25 26 27 28 29 30 31 32 33 34 35 36 37 38 39 40 41 42 43 44 45 46 47 48 49 50
000
ASUS43 KIND 080609
RWRIN

WEATHER ROUNDUP FOR INDIANA
NATIONAL WEATHER SERVICE INDIANAPOLIS IN
100 AM EST THU DEC 08 2016

NOTE: "FAIR" INDICATES FEW OR NO CLOUDS BELOW 12,000 FEET WITH NO
SIGNIFICANT WEATHER AND/OR OBSTRUCTIONS TO VISIBILITY.

* - STATION DOES NOT REPORT WEATHER SUCH AS PRECIPITATION OR FOG.

+ - STATION NOT QUALITY CONTROLLED BY THE NATIONAL WEATHER SERVICE.
    USE DATA WITH CAUTION...ESPECIALLY DEWPOINT AND RELATIVE
    HUMIDITY OBSERVATIONS.

INZ001>003-010>013-019-020-080700-
NORTHWEST INDIANA

CITY           SKY/WX    TMP DP  RH WIND       PRES   REMARKS
GARY /AIRPORT/ CLOUDY    26  17  66 W14       30.17S WCI  15
KNOX *+        CLOUDY    23   0  36 W15G25    30.17S WCI  10
LA PORTE +     FLURRIES  22  15  72 W15G22    30.15S WCI   9
6HR MIN TEMP:  22; 6HR MAX TEMP:  27;

MICHIGAN CITY+ CLOUDY    27  18  69 W12G21    30.15F WCI  16
MONTICELLO +   CLOUDY    25  14  63 NW17G23   30.19S WCI  11
6HR MIN TEMP:  24; 6HR MAX TEMP:  30;

RENSSELAER +     N/A     27  19  74 W16G23    30.19S WCI  14
VALPARAISO     CLOUDY    24  15  68 W18       30.16F WCI  10
6HR MIN TEMP:  24; 6HR MAX TEMP:  28;


$$

LMZ046-743>745-080700-
SOUTHERN LAKE MICHIGAN

STATION/POSITION TIME  TEMP    WIND        PRES    WAVE
                       AIR SEA DIR/SP/G            HT
                 (UTC) (F)     (DEG/KT/KT) (MB)    (FT)
MICHIGAN CITY    0540   26     240/ 22/ 29   N/A

$$

INZ004-005-014>016-021>024-080700-
NORTH CENTRAL INDIANA

CITY           SKY/WX    TMP DP  RH WIND       PRES   REMARKS
GOSHEN         CLOUDY    25  16  68 W17       30.12S WCI  12
6HR MIN TEMP:  25; 6HR MAX TEMP:  29;

LOGANSPORT +   CLOUDY    27  19  74 W13G22    30.19S WCI  16
PERU/GRISSOM   CLOUDY    25  18  73 W16       30.15R WCI  12
6HR MIN TEMP:  24; 6HR MAX TEMP:  31;

ROCHESTER +    CLOUDY    27  19  74 W16G23    30.16R WCI  14
SOUTH BEND     CLOUDY    24  17  74 W17G25    30.13R WCI  11
6HR MIN TEMP:  24; 6HR MAX TEMP:  27;

WARSAW +       CLOUDY    25  16  68 W16       30.13S WCI  12

$$

INZ006>009-017-018-025>027-080700-
NORTHEAST INDIANA

CITY           SKY/WX    TMP DP  RH WIND       PRES   REMARKS
ANGOLA *+      CLOUDY    27  19  74 W15       30.07S WCI  15
AUBURN +       CLOUDY    27  19  74 W16G23    30.12R WCI  14
FORT WAYNE     CLOUDY    26  18  71 W14G23    30.13S WCI  14
6HR MIN TEMP:  26; 6HR MAX TEMP:  31;

HUNTINGTON +   CLOUDY    25  18  76 W12G20    30.15R WCI  14
6HR MIN TEMP:  25; 6HR MAX TEMP:  31;

KENDALLVILLE + CLOUDY    25  18  72 W20G25    30.09S WCI  11

$$

INZ028-029-035-036-043>045-051>053-080700-
WEST CENTRAL INDIANA

CITY           SKY/WX    TMP DP  RH WIND       PRES   REMARKS
CRAWFORDSVL +  MOCLDY    25  19  78 W16       30.22R WCI  12
6HR MIN TEMP:  24; 6HR MAX TEMP:  29;

GREENCASTLE +  CLOUDY    28  21  74 W9        30.23R WCI  20
LAFAYETTE      CLOUDY    24  17  74 W14       30.22R WCI  12
6HR MIN TEMP:  24; 6HR MAX TEMP:  29;

TERRE HAUTE    CLOUDY    29  17  61 NW9       30.26R WCI  20
6HR MIN TEMP:  29; 6HR MAX TEMP:  33;


$$

INZ030>032-037>040-046>048-054>057-064-065-080700-
CENTRAL INDIANA

CITY           SKY/WX    TMP DP  RH WIND       PRES   REMARKS
CP ATTERBURY + CLOUDY    32  23  69 NW12      30.21S WCI  23
FRANKFORT +    CLOUDY    28  20  73 NW16      30.21S WCI  16
6HR MIN TEMP:  28; 6HR MAX TEMP:  33;

GREENWOOD *+   PTCLDY    29  23  77 W10       30.20S WCI  20
6HR MIN TEMP:  29; 6HR MAX TEMP:  34;

INDIANAPOLIS   MOCLDY    27  20  75 W12       30.20R WCI  17
6HR MIN TEMP:  27; 6HR MAX TEMP:  33;

-EAGLE CREEK   MOCLDY    28  19  69 W12       30.20R WCI  18
6HR MIN TEMP:  28; 6HR MAX TEMP:  33;

KOKOMO +       MOCLDY    25  18  74 W23       30.18R WCI  10
6HR MIN TEMP:  25; 6HR MAX TEMP:  30;

MARION +       PTCLDY    25  18  75 W18G26    30.17S WCI  12
MT COMFORT *+  MOCLDY    27  19  74 W14       30.19S WCI  15
SHELBYVILLE    PTCLDY    30  21  69 W13       30.19S WCI  20
6HR MIN TEMP:  30; 6HR MAX TEMP:  35;

ZIONSVILLE +   CLOUDY    26  21  80 NW14      30.19F WCI  15
6HR MIN TEMP:  26; 6HR MAX TEMP:  31;


$$

INZ033-034-041-042-049-050-058-059-080700-
EAST CENTRAL INDIANA

CITY           SKY/WX    TMP DP  RH WIND       PRES   REMARKS
MUNCIE         PTCLDY    28  18  66 W16G30    30.16S WCI  16
6HR MIN TEMP:  28; 6HR MAX TEMP:  33;


$$

INZ060-061-067>069-081>083-085>088-080700-
SOUTHWEST INDIANA

CITY           SKY/WX    TMP DP  RH WIND       PRES   REMARKS
EVANSVILLE     CLOUDY    34  20  56 NW9       30.28F WCI  27
6HR MIN TEMP:  34; 6HR MAX TEMP:  37;

HUNTINGBURG *+ CLOUDY    32  23  69 NW7       30.26F WCI  26
6HR MIN TEMP:  32; 6HR MAX TEMP:  35;

WASHINGTON +   CLOUDY    32  25  74 NW16      30.25F WCI  21
6HR MIN TEMP:  32; 6HR MAX TEMP:  34;


$$

INZ062-063-066-070>080-084-089>092-080700-
SOUTH CENTRAL AND SOUTHEAST INDIANA

CITY           SKY/WX    TMP DP  RH WIND       PRES   REMARKS
BLOOMINGTON    CLOUDY    30  20  66 W12G23    30.21S WCI  20
6HR MIN TEMP:  30; 6HR MAX TEMP:  34;

MADISON *+     PTCLDY    32  23  69 W7        30.22S WCI  26
NORTH VERNON + MOCLDY    32  28  86 W12       30.21S WCI  23
SEYMOUR +      CLOUDY    32  23  69 NW5       30.23R WCI  27

$$




USA.gov is the U.S. government's official web portal to all federal, state and local government web resources and services.